Regional Weather Roundup
Issued by NWS

Home | Current Version | Previous Version | Graphics & Text | Print | Product List | Glossary On
Versions: 1 2 3 4 5 6 7 8 9 10 11 12 13 14 15 16 17 18 19 20 21 22 23 24 25 26 27 28 29 30 31 32 33 34 35 36 37 38 39 40 41 42 43 44 45 46 47 48 49 50
413
ASUS43 KDMX 212106
RWRIA

WEATHER ROUNDUP FOR IOWA
NATIONAL WEATHER SERVICE DES MOINES IA
400 PM CDT MON AUG 21 2017

NOTE: "FAIR" INDICATES FEW OR NO CLOUDS BELOW 12,000 FEET WITH NO
SIGNIFICANT WEATHER AND/OR OBSTRUCTIONS TO VISIBILITY.

* - THESE STATIONS ARE NOT NWS STATIONS...THUS NOT UNDER NWS
QUALITY CONTROL.  THEY ALSO DO NOT REPORT WEATHER SUCH
AS PRECIPITATION OR FOG.

IAZ001>003-012>014-020>022-031>034-043>046-212200-
   NORTHWEST IOWA

CITY           SKY/WX    TMP DP  RH WIND       PRES   REMARKS
CARROLL *      CLOUDY    81  73  78 SW16G24   29.92F HX  85
CHEROKEE *     RAIN      65  65  99 NE13G28   30.00R
DENISON *      SUNNY     79  72  78 S13G22    29.95S HX  82
LE MARS *      CLOUDY   104 N/A N/A NE21G29   29.91F
ORANGE CITY *  LGT RAIN  66  66 100 E21G30    29.88F
SHELDON *      LGT RAIN  64  64 100 E18       29.90F
SIOUX CITY     LGT RAIN  66  65  96 S9        29.98F
SPENCER        TSTM      65  64  97 W14       30.11R VSB 1/2
STORM LAKE *   LGT RAIN  68  66  94 E10G16    29.98S VSB 1
$$

IAZ055>058-069>071-079>083-090>094-212200-
   SOUTHWEST IOWA

CITY           SKY/WX    TMP DP  RH WIND       PRES   REMARKS
ATLANTIC *     CLOUDY    79  72  78 S15       29.94F HX  82
AUDUBON *      MOSUNNY   81  72  74 S15G22    29.95F HX  84
CLARINDA *     SUNNY     82  75  78 S12       29.97S HX  89
COUNCIL BLFS * PTSUNNY   81  75  83 S9G15     29.95S HX  86
CRESTON *      PTSUNNY   82  70  65 S15       29.98R HX  86
HARLAN  *      MOSUNNY   79  72  78 S14G21    29.97F HX  82
LAMONI         MOSUNNY   78  70  76 S10       29.97F HX  80
RED OAK *      MOSUNNY   82  73  74 S12G17    29.94F HX  88
SHENANDOAH *   MOSUNNY   82  73  74 S9        29.94F HX  88
$$

IAZ047>049-059>061-072>074-084-212200-
   CENTRAL IOWA

CITY           SKY/WX    TMP DP  RH WIND       PRES   REMARKS
AMES           CLOUDY    80  71  74 SW14G20   29.94F HX  84
ANKENY *       CLOUDY    79  70  73 VRB7G16   29.94F HX  81
BOONE *        PTSUNNY   81  70  69 SW10      29.94F HX  84
CHARITON *     CLOUDY    81  72  74 S10       29.95F HX  84
DES MOINES     CLOUDY    82  70  66 S9        29.93F HX  86
GRINNELL*      CLOUDY    80  69  69 S10       29.96F HX  83
KNOXVILLE *    PTSUNNY   81  70  69 S7        29.93F HX  84
MARSHALLTOWN   CLOUDY    77  68  73 W6        29.97F
NEWTON *       PTSUNNY   81  70  69 SW12G18   29.94F HX  84
PELLA *        MOSUNNY   84  69  60 SW13      29.95F HX  88
PERRY *          N/A     79  72  78 S9        29.93F HX  83
$$

IAZ004>006-015-016-023>025-035-036-212200-
   NORTH CENTRAL IOWA

CITY           SKY/WX    TMP DP  RH WIND       PRES   REMARKS
ALGONA *       LGT RAIN  66  66 100 N7        30.03F
CLARION *      CLOUDY    68  68 100 N8        30.02R FOG
ESTHERVILLE    TSTM      64  64 100 VRB3      30.04R VSB 3/4
FORT DODGE *   CLOUDY    68  63  83 NE5       30.03S
MASON CITY     LGT RAIN  67  65  93 W7        30.05R
FOREST CITY *  RAIN      66  64  94 CALM      30.02F
WEBSTER CITY * DRIZZLE   72  66  83 N14G21    29.98R
IOWA FALLS *   CLOUDY    76  64  65 CALM      30.01R
$$

IAZ007>011-017>019-026>030-037>042-050>054-066-212200-
   NORTHEAST IOWA

CITY           SKY/WX    TMP DP  RH WIND       PRES   REMARKS
CEDAR RAPIDS   CLOUDY    75  69  81 S3        29.96F
CHARLES CITY * CLOUDY    72  70  94 NW7       30.03R
CLINTON *      CLOUDY    79  71  76 SW14      29.98F HX  82
DECORAH *      CLOUDY    73  66  78 VRB3      29.99R
DUBUQUE        MOSUNNY   77  68  73 SW14      30.00R
MONTICELLO *   MOSUNNY   79  70  73 SW12      29.99R HX  81
OELWEIN *      CLOUDY    77  68  73 SW15      30.00S
WATERLOO       CLOUDY    75  64  68 S9        29.99R
$$

IAZ064-065-067-068-078-212200-
   EAST CENTRAL IOWA

CITY           SKY/WX    TMP DP  RH WIND       PRES   REMARKS
DAVENPORT      PTSUNNY   80  70  71 SW12      29.99F HX  83
MT. PLEASANT * CLOUDY    81  63  54 S16G24    29.94F HX  82
MUSCATINE *    PTSUNNY   82  68  61 S8        29.95F HX  85
QUAD CITIES    MOSUNNY   82  69  64 SW12      29.96F HX  85
$$

IAZ062-063-075>077-085>089-095>099-212200-
   SOUTHEAST IOWA

CITY           SKY/WX    TMP DP  RH WIND       PRES   REMARKS
BURLINGTON     CLOUDY    77  70  79 SW13G21   29.95F
FAIRFIELD *    PTSUNNY   84  66  54 SW14G21   29.93F HX  86
FORT MADISON * CLOUDY    75  72  88 S9        29.96F
KEOKUK *       CLOUDY    73  72  94 S7        29.95F
OSKALOOSA *      N/A     82  71  68 SW8       29.94F HX  86
CENTERVILLE *    N/A     79  68  69 S5        30.00R HX  81
OTTUMWA        PTSUNNY   84  69  60 SW10      29.93F HX  88
WASHINGTON *   CLOUDY    82  70  65 SW5       29.95F HX  86
$$

ABBREVIATIONS USED IN REMARKS
   TC - TEMPERATURES IN CELSIUS
  WCI - WIND CHILL INDEX
   HX - HEAT INDEX
  VSB - VISIBILITY
$$





USA.gov is the U.S. government's official web portal to all federal, state and local government web resources and services.